N3PL Weather Reports


Display with metric or nautical units.
time (UTC)temp
F
wind
direction
speed
MPH
gust
MPH
rain 1hr
in
rain 24hr
in
rain mn
in
humidity
%
barometer
mb
20260503013104 51 311 0.0 0.0 0.00 0.00 0.00 46 1008.0
20260503012502 51 311 0.0 0.0 0.00 0.00 0.00 45 1008.0
20260503012006 51 311 0.0 0.0 0.00 0.00 0.00 44 1008.0
20260503011513 51 311 0.0 0.0 0.00 0.00 0.00 45 1008.0
20260503011108 51 311 0.0 0.0 0.00 0.00 0.00 46 1007.7
20260503010502 51 311 0.0 0.0 0.00 0.00 0.00 44 1007.7
20260503010006 51 311 0.0 0.0 0.00 0.00 0.00 44 1007.7
20260503005509 52 311 0.0 0.0 0.00 0.00 0.00 43 1007.6
20260503005105 52 311 0.0 0.0 0.00 0.00 0.00 42 1007.6
20260503004604 52 311 0.0 0.0 0.00 0.00 0.00 42 1007.6
20260503004001 52 311 0.0 0.0 0.00 0.00 0.00 41 1007.5
20260503003504 52 311 0.0 0.0 0.00 0.00 0.00 42 1007.5
20260503003103 52 311 0.0 0.0 0.00 0.00 0.00 41 1007.5
20260503002602 52 311 0.0 0.0 0.00 0.00 0.00 40 1007.3
20260503002003 53 311 0.0 0.0 0.00 0.00 0.00 42 1007.3
20260503001557 53 311 0.0 0.0 0.00 0.00 0.00 40 1007.3
20260503001101 53 311 0.0 0.0 0.00 0.00 0.00 39 1007.3
20260503000602 53 311 0.0 0.0 0.00 0.00 0.00 39 1007.3
20260503000112 53 311 0.0 0.0 0.00 0.00 0.00 39 1007.3
20260502235507 53 311 0.0 0.0 0.00 0.00 0.00 39 1007.2
20260502235007 54 311 0.0 0.0 0.00 0.00 0.00 38 1007.2
20260502234514 54 309 0.0 0.0 0.00 0.00 0.00 38 1007.2
20260502234004 54 309 0.0 0.0 0.00 0.00 0.00 38 1007.0
20260502233506 54 311 0.0 0.0 0.00 0.00 0.00 36 1007.0
20260502233011 54 311 0.0 0.0 0.00 0.00 0.00 36 1007.0
20260502232602 55 340 0.0 0.0 0.00 0.00 0.00 35 1006.9
20260502232105 55 288 0.0 0.0 0.00 0.00 0.00 35 1006.9
20260502231503 55 288 0.0 0.0 0.00 0.00 0.00 34 1006.9
20260502231005 55 284 0.0 0.0 0.00 0.00 0.00 34 1006.9
20260502230559 55 326 0.0 0.0 0.00 0.00 0.00 35 1006.9
20260502225504 55 271 0.0 0.0 0.00 0.00 0.00 34 1006.9
20260502225056 55 271 0.0 0.0 0.00 0.00 0.00 33 1006.9
20260502224603 55 305 0.0 0.0 0.00 0.00 0.00 34 1006.9
20260502224104 56 278 0.0 0.0 0.00 0.00 0.00 32 1006.9
20260502223607 56 277 0.0 0.0 0.00 0.00 0.00 32 1006.9
20260502223053 56 316 0.0 0.0 0.00 0.00 0.00 31 1006.9
20260502222556 56 272 0.0 0.0 0.00 0.00 0.00 33 1006.7
20260502222058 56 263 0.0 0.0 0.00 0.00 0.00 31 1006.7
20260502221603 56 323 0.0 0.0 0.00 0.00 0.00 31 1006.7
20260502221054 57 257 0.0 0.0 0.00 0.00 0.00 30 1006.6
20260502220557 57 280 0.0 0.0 0.00 0.00 0.00 31 1006.6
20260502220100 57 277 0.0 0.0 0.00 0.00 0.00 31 1006.6
20260502215604 57 294 0.0 0.0 0.00 0.00 0.00 30 1006.6
20260502215106 58 301 0.0 0.0 0.00 0.00 0.00 32 1006.6
20260502214504 57 285 0.0 0.0 0.00 0.00 0.00 31 1006.6
20260502214007 57 309 0.0 0.0 0.00 0.00 0.00 32 1006.6
20260502213559 57 320 0.0 0.0 0.00 0.00 0.00 31 1006.6
20260502213046 57 320 0.0 0.0 0.00 0.00 0.00 30 1006.6
20260502212541 57 322 0.0 0.0 0.00 0.00 0.00 31 1006.4
20260502212047 57 308 0.0 0.0 0.00 0.00 0.00 30 1006.4
20260502211556 57 308 0.0 0.0 0.00 0.00 0.00 30 1006.4
20260502211059 57 274 0.0 0.0 0.00 0.00 0.00 29 1006.3
20260502210603 58 280 0.0 0.0 0.00 0.00 0.00 31 1006.3
20260502210104 57 301 0.0 0.0 0.00 0.00 0.00 30 1006.3
20260502205506 57 320 0.0 0.0 0.00 0.00 0.00 31 1006.2
20260502205059 58 322 0.0 0.0 0.00 0.00 0.00 30 1006.2
20260502204602 58 318 0.0 0.0 0.00 0.00 0.00 31 1006.2
20260502204104 57 318 0.0 0.0 0.00 0.00 0.00 31 1006.3
20260502203502 57 318 0.0 0.0 0.00 0.00 0.00 33 1006.3
20260502203004 57 261 0.0 0.0 0.00 0.00 0.00 32 1006.3
20260502202507 57 261 0.0 0.0 0.00 0.00 0.00 34 1006.4
20260502202014 57 312 0.0 0.0 0.00 0.00 0.00 33 1006.4
20260502201516 57 298 0.0 0.0 0.00 0.00 0.00 33 1006.4
20260502201002 57 315 0.0 0.0 0.00 0.00 0.00 33 1006.5
20260502200509 57 294 0.0 0.0 0.00 0.00 0.00 33 1006.5
20260502200009 58 304 0.0 0.0 0.00 0.00 0.00 32 1006.5
20260502195600 58 272 0.0 0.0 0.00 0.00 0.00 34 1006.7
20260502195002 58 325 0.0 0.0 0.00 0.00 0.00 34 1006.7
20260502194505 58 263 0.0 0.0 0.00 0.00 0.00 34 1006.7
20260502194007 58 270 0.0 0.0 0.00 0.00 0.00 35 1006.9
20260502193559 57 339 0.0 0.0 0.00 0.00 0.00 35 1006.9
20260502193113 57 288 0.0 0.0 0.00 0.00 0.00 34 1006.9
20260502192606 57 330 0.0 0.0 0.00 0.00 0.00 35 1007.3
20260502192005 57 315 0.0 0.0 0.00 0.00 0.00 33 1007.3
20260502191506 57 289 0.0 0.0 0.00 0.00 0.00 34 1007.3
20260502191059 57 280 0.0 0.0 0.00 0.00 0.00 33 1007.3
20260502190604 58 295 0.0 0.0 0.00 0.00 0.00 34 1007.3
20260502190105 58 312 0.0 0.0 0.00 0.00 0.00 33 1007.3
20260502185558 58 284 0.0 0.0 0.00 0.00 0.00 33 1007.5
20260502185101 58 295 0.0 0.0 0.00 0.00 0.00 32 1007.5
20260502184501 58 274 0.0 0.0 0.00 0.00 0.00 31 1007.5
20260502184056 58 311 0.0 0.0 0.00 0.00 0.00 31 1007.7
20260502183558 59 329 0.0 0.0 0.00 0.00 0.00 31 1007.7
20260502183101 59 311 0.0 0.0 0.00 0.00 0.00 31 1007.7
20260502182606 59 322 0.0 0.0 0.00 0.00 0.00 33 1007.9
20260502182002 58 322 0.0 0.0 0.00 0.00 0.00 33 1007.9
20260502181508 58 277 0.0 0.0 0.00 0.00 0.00 35 1007.9
20260502181104 58 270 0.0 0.0 0.00 0.00 0.00 35 1007.8
20260502180504 58 336 0.0 0.0 0.00 0.00 0.00 33 1007.8
20260502170505 56 126 0.0 0.0 0.00 0.00 0.00 39 1008.2
20260502164059 55 308 0.0 0.0 0.00 0.00 0.00 40 1008.6
20260502163601 55 257 0.0 0.0 0.00 0.00 0.00 40 1008.6
20260502163105 55 277 0.0 0.0 0.00 0.00 0.00 42 1008.6
20260502162500 55 277 0.0 0.0 0.00 0.00 0.00 40 1008.8
20260502162003 55 117 0.0 0.0 0.00 0.00 0.00 39 1008.8
20260502161507 55 268 0.0 0.0 0.00 0.00 0.00 38 1008.8
20260502161012 55 299 0.0 0.0 0.00 0.00 0.00 39 1008.9
20260502160603 55 298 0.0 0.0 0.00 0.00 0.00 37 1008.9
20260502160135 55 264 0.0 0.0 0.00 0.00 0.00 40 1008.9
20260502152058 53 312 0.0 0.0 0.00 0.00 0.00 42 1008.9
20260502151609 52 294 0.0 0.0 0.00 0.00 0.00 46 1008.9
20260502151105 52 285 0.0 0.0 0.00 0.00 0.00 46 1008.8
20260502150606 52 289 0.0 0.0 0.00 0.00 0.00 46 1008.8
20260502130555 48 308 0.0 0.0 0.00 0.00 0.00 71 1009.0
20260502123501 47 313 0.0 0.0 0.00 0.00 0.00 73 1008.9
20260502123003 47 278 0.0 0.0 0.00 0.00 0.00 72 1008.9
20260502122507 48 288 0.0 0.0 0.00 0.00 0.00 71 1008.9
20260502122012 48 313 0.0 0.0 0.00 0.00 0.00 71 1008.9
20260502121612 48 292 0.0 0.0 0.00 0.00 0.00 71 1008.9
20260502121106 48 284 0.0 0.0 0.00 0.00 0.00 71 1008.5
20260502120504 48 311 0.0 0.0 0.00 0.00 0.00 69 1008.5
20260502115515 48 296 0.0 0.0 0.00 0.00 0.00 70 1008.6
20260502115018 48 312 0.0 0.0 0.00 0.00 0.00 70 1008.6
20260502114515 48 322 0.0 0.0 0.00 0.00 0.00 70 1008.6
20260502114017 48 274 0.0 0.0 0.00 0.00 0.00 70 1008.5
20260502113503 48 319 0.0 0.0 0.00 0.00 0.00 71 1008.5
20260502113005 48 325 0.0 0.0 0.00 0.00 0.00 73 1008.5
20260502112509 48 309 0.0 0.0 0.00 0.00 0.00 74 1008.5
20260502112013 48 325 0.0 0.0 0.00 0.00 0.00 74 1008.5
20260502111605 48 272 0.0 0.0 0.00 0.00 0.00 75 1008.5
20260502111004 48 289 0.0 0.0 0.00 0.00 0.00 74 1008.4
20260502110507 48 296 0.0 0.0 0.00 0.00 0.00 74 1008.4
20260502105607 48 298 0.0 0.0 0.00 0.00 0.00 73 1008.2
20260502105004 48 299 0.0 0.0 0.00 0.00 0.00 73 1008.2
20260502104506 48 312 0.0 0.0 0.00 0.00 0.00 73 1008.2
20260502104059 48 312 0.0 0.0 0.00 0.00 0.00 72 1007.9
20260502103602 48 267 0.0 0.0 0.00 0.00 0.00 72 1007.9
20260502103104 48 323 0.0 0.0 0.00 0.00 0.00 71 1007.9
20260502102606 48 316 0.0 0.0 0.00 0.00 0.00 71 1007.6
20260502102010 49 292 0.0 0.0 0.00 0.00 0.00 71 1007.6
20260502101511 49 305 0.0 0.0 0.00 0.00 0.00 71 1007.6
20260502101015 49 315 0.0 0.0 0.00 0.00 0.00 71 1007.4
20260502100501 49 288 0.0 0.0 0.00 0.00 0.00 71 1007.4
20260502091058 49 240 0.0 0.0 0.00 0.00 0.00 80 1007.7
20260502090603 49 240 0.0 0.0 0.00 0.00 0.00 80 1007.7
20260502090105 49 240 0.0 0.0 0.00 0.00 0.00 80 1007.7
20260502071504 51 240 0.0 0.0 0.00 0.00 0.00 74 1007.3
20260502071058 51 240 0.0 0.0 0.00 0.00 0.00 73 1007.3
20260502070600 51 240 0.0 0.0 0.00 0.00 0.00 73 1007.3
20260502070105 51 240 0.0 0.0 0.00 0.00 0.00 73 1007.3
20260502065502 51 240 0.0 0.0 0.00 0.00 0.00 73 1007.5
20260502065011 51 240 0.0 0.0 0.00 0.00 0.00 73 1007.5
20260502064508 51 240 0.0 0.0 0.00 0.00 0.00 73 1007.5
20260502064015 51 240 0.0 0.0 0.00 0.00 0.00 73 1007.7
20260502063501 51 240 0.0 0.0 0.00 0.00 0.00 74 1007.7
20260502063004 51 237 0.0 0.0 0.00 0.00 0.00 76 1007.7
20260502062508 51 237 0.0 0.0 0.00 0.00 0.00 75 1007.7
20260502062104 51 237 0.0 0.0 0.00 0.00 0.00 73 1007.7
20260502061505 51 237 0.0 0.0 0.00 0.00 0.00 76 1007.7
20260502061006 51 237 0.0 0.0 0.00 0.00 0.00 77 1007.7
20260502060559 51 237 0.0 0.0 0.00 0.00 0.00 77 1007.7
20260502060123 51 237 0.0 0.0 0.00 0.00 0.00 77 1007.7
20260502055502 51 237 0.0 0.0 0.00 0.00 0.00 73 1007.6
20260502055004 51 237 0.0 0.0 0.00 0.00 0.00 73 1007.6
20260502054558 51 237 0.0 0.0 0.00 0.00 0.00 74 1007.6
20260502054100 51 237 0.0 0.0 0.00 0.00 0.00 74 1007.8
20260502053604 51 237 0.0 0.0 0.00 0.00 0.00 74 1007.8
20260502053005 51 237 0.0 0.0 0.00 0.00 0.00 75 1007.8
20260502052559 51 237 0.0 0.0 0.00 0.00 0.00 74 1007.9
20260502052102 51 237 0.0 0.0 0.00 0.00 0.00 73 1007.9
20260502051504 51 237 0.0 0.0 0.00 0.00 0.00 75 1007.9
20260502051056 51 237 0.0 0.0 0.00 0.00 0.00 75 1007.7
20260502050558 52 237 0.0 0.0 0.00 0.00 0.00 76 1007.7
20260502050101 52 237 0.0 0.0 0.00 0.00 0.00 74 1007.7
20260502045602 52 237 0.0 0.0 0.00 0.00 0.00 75 1007.7
20260502045105 52 237 0.0 0.0 0.00 0.00 0.00 76 1007.7
20260502044505 52 237 0.0 0.0 0.00 0.00 0.00 74 1007.7
20260502044008 52 237 0.0 0.0 0.00 0.00 0.00 73 1007.8
20260502043603 52 237 0.0 0.0 0.00 0.00 0.00 73 1007.8
20260502043001 52 237 0.0 0.0 0.00 0.00 0.00 73 1007.8
20260502042505 52 237 0.0 0.0 0.00 0.00 0.00 74 1007.8
20260502042010 52 237 0.0 0.0 0.00 0.00 0.00 74 1007.8
20260502041601 51 237 0.0 0.0 0.00 0.00 0.00 75 1007.8
20260502041103 51 237 0.0 0.0 0.00 0.00 0.00 76 1007.7
20260502040504 51 237 0.0 0.0 0.00 0.00 0.00 78 1007.7
20260502040107 51 237 0.0 0.0 0.00 0.00 0.00 77 1007.7
20260502035604 51 237 0.0 0.0 0.00 0.00 0.00 77 1007.6
20260502035006 51 237 0.0 0.0 0.00 0.00 0.00 77 1007.6
20260502034511 51 237 0.0 0.0 0.00 0.00 0.00 77 1007.6
20260502034058 51 237 0.0 0.0 0.00 0.00 0.00 77 1007.2
20260502033546 52 237 0.0 0.0 0.00 0.00 0.00 77 1007.2
20260502033049 52 237 0.0 0.0 0.00 0.00 0.00 76 1007.2
20260502032555 52 237 0.0 0.0 0.00 0.00 0.00 76 1007.3
20260502032103 52 237 0.0 0.0 0.00 0.00 0.00 76 1007.3
20260502031605 52 237 0.0 0.0 0.00 0.00 0.00 76 1007.3
20260502031002 52 237 0.0 0.0 0.00 0.00 0.00 75 1007.3
20260502030557 52 237 0.0 0.0 0.00 0.00 0.00 75 1007.3
20260502030058 52 237 0.0 0.0 0.00 0.00 0.00 75 1007.3
20260502025503 52 237 0.0 0.0 0.00 0.00 0.00 74 1007.2
20260502025058 52 237 0.0 0.0 0.00 0.00 0.00 74 1007.2
20260502024612 52 237 0.0 0.0 0.00 0.00 0.00 74 1007.2
20260502024104 52 237 0.0 0.0 0.00 0.00 0.00 74 1007.5
20260502023501 52 237 0.0 0.0 0.00 0.00 0.00 74 1007.5
20260502023055 52 237 0.0 0.0 0.00 0.00 0.00 74 1007.5
20260502022557 52 237 0.0 0.0 0.00 0.00 0.00 74 1007.8
20260502022059 52 237 0.0 0.0 0.00 0.00 0.00 74 1007.8
20260502021607 52 237 0.0 0.0 0.00 0.00 0.00 74 1007.8
20260502021002 52 237 0.0 0.0 0.00 0.00 0.00 74 1007.7
20260502020505 52 237 0.0 0.0 0.00 0.00 0.00 74 1007.7
20260502020101 52 237 0.0 0.0 0.00 0.00 0.00 74 1007.7
20260502015605 52 237 0.0 0.0 0.00 0.00 0.00 75 1007.6
20260502015002 52 237 0.0 0.0 0.00 0.00 0.00 75 1007.6
20260502014505 52 237 0.0 0.0 0.00 0.00 0.00 75 1007.6
20260502014100 52 237 0.0 0.0 0.00 0.00 0.00 75 1007.3
20260502013605 52 237 0.0 0.0 0.00 0.00 0.00 74 1007.3